![]() |
EMODnet Physics ERDDAP
Easier access to scientific data |
log in|
Brought to you by EMODnet Physics |
| Dataset Title: | NDBC - Collection of dew point temperature (DEWT) TimeSeries - IN SITU MultiPointTimeSeriesObservation
|
| Institution: | NDBC (Dataset ID: TS_DEWT_NDBC) |
| Information: | Summary
| License
| FGDC
| ISO 19115
| Metadata
| Background
| Subset
| Data Access Form
| Make a graph
|
| Name | Last modified | Size | Description | |
|---|---|---|---|---|
| Parent Directory | - | - | ||
| 42390_TS_DEWT_012012.nc | 02-Jan-2025 04:56 | 449710 | ||
| 42390_TS_DEWT_012013.nc | 02-Jan-2025 04:58 | 429834 | ||
| 42390_TS_DEWT_012014.nc | 02-Jan-2025 04:59 | 429838 | ||
| 42390_TS_DEWT_012015.nc | 18-Jan-2026 19:46 | 429819 | ||
| 42390_TS_DEWT_012016.nc | 18-Jan-2026 19:49 | 435868 | ||
| 42390_TS_DEWT_012017.nc | 18-Jan-2026 19:52 | 1109871 | ||
| 42390_TS_DEWT_012018.nc | 18-Jan-2026 19:53 | 1098154 | ||
| 42390_TS_DEWT_022012.nc | 02-Jan-2025 04:56 | 1007576 | ||
| 42390_TS_DEWT_022014.nc | 02-Jan-2025 04:59 | 4857702 | ||
| 42390_TS_DEWT_022015.nc | 18-Jan-2026 19:47 | 3473811 | ||
| 42390_TS_DEWT_022016.nc | 18-Jan-2026 19:49 | 452858 | ||
| 42390_TS_DEWT_022018.nc | 18-Jan-2026 19:54 | 997938 | ||
| 42390_TS_DEWT_032012.nc | 02-Jan-2025 04:56 | 1109629 | ||
| 42390_TS_DEWT_032014.nc | 02-Jan-2025 04:59 | 1015730 | ||
| 42390_TS_DEWT_032015.nc | 18-Jan-2026 19:47 | 1114534 | ||
| 42390_TS_DEWT_032016.nc | 18-Jan-2026 19:49 | 984584 | ||
| 42390_TS_DEWT_032017.nc | 18-Jan-2026 19:52 | 1265302 | ||
| 42390_TS_DEWT_032018.nc | 18-Jan-2026 19:54 | 434691 | ||
| 42390_TS_DEWT_042012.nc | 02-Jan-2025 04:57 | 444507 | ||
| 42390_TS_DEWT_042014.nc | 02-Jan-2025 04:59 | 445968 | ||
| 42390_TS_DEWT_042015.nc | 18-Jan-2026 19:47 | 427632 | ||
| 42390_TS_DEWT_042016.nc | 18-Jan-2026 19:50 | 442807 | ||
| 42390_TS_DEWT_042017.nc | 18-Jan-2026 19:52 | 446335 | ||
| 42390_TS_DEWT_042018.nc | 18-Jan-2026 19:54 | 442615 | ||
| 42390_TS_DEWT_052012.nc | 02-Jan-2025 04:57 | 446106 | ||
| 42390_TS_DEWT_052013.nc | 02-Jan-2025 04:58 | 448077 | ||
| 42390_TS_DEWT_052014.nc | 02-Jan-2025 04:59 | 435097 | ||
| 42390_TS_DEWT_052015.nc | 18-Jan-2026 19:47 | 448625 | ||
| 42390_TS_DEWT_052016.nc | 18-Jan-2026 19:50 | 447614 | ||
| 42390_TS_DEWT_052017.nc | 18-Jan-2026 19:52 | 436685 | ||
| 42390_TS_DEWT_052018.nc | 18-Jan-2026 19:54 | 448715 | ||
| 42390_TS_DEWT_062012.nc | 02-Jan-2025 04:57 | 445143 | ||
| 42390_TS_DEWT_062013.nc | 02-Jan-2025 04:58 | 429942 | ||
| 42390_TS_DEWT_062014.nc | 02-Jan-2025 04:59 | 424257 | ||
| 42390_TS_DEWT_062015.nc | 18-Jan-2026 19:48 | 449224 | ||
| 42390_TS_DEWT_062016.nc | 18-Jan-2026 19:50 | 441011 | ||
| 42390_TS_DEWT_062017.nc | 18-Jan-2026 19:52 | 450636 | ||
| 42390_TS_DEWT_062018.nc | 18-Jan-2026 19:54 | 446709 | ||
| 42390_TS_DEWT_072012.nc | 02-Jan-2025 04:57 | 443290 | ||
| 42390_TS_DEWT_072013.nc | 02-Jan-2025 04:58 | 430040 | ||
| 42390_TS_DEWT_072014.nc | 02-Jan-2025 04:59 | 422936 | ||
| 42390_TS_DEWT_072015.nc | 18-Jan-2026 19:48 | 447128 | ||
| 42390_TS_DEWT_072016.nc | 18-Jan-2026 19:50 | 435091 | ||
| 42390_TS_DEWT_072017.nc | 18-Jan-2026 19:52 | 445557 | ||
| 42390_TS_DEWT_082012.nc | 02-Jan-2025 04:57 | 448729 | ||
| 42390_TS_DEWT_082015.nc | 18-Jan-2026 19:48 | 432619 | ||
| 42390_TS_DEWT_082016.nc | 18-Jan-2026 19:51 | 445115 | ||
| 42390_TS_DEWT_082017.nc | 18-Jan-2026 19:53 | 445048 | ||
| 42390_TS_DEWT_092012.nc | 02-Jan-2025 04:57 | 443559 | ||
| 42390_TS_DEWT_092013.nc | 02-Jan-2025 04:58 | 446008 | ||
| 42390_TS_DEWT_092014.nc | 18-Jan-2026 19:46 | 434712 | ||
| 42390_TS_DEWT_092015.nc | 18-Jan-2026 19:48 | 434414 | ||
| 42390_TS_DEWT_092016.nc | 18-Jan-2026 19:51 | 442539 | ||
| 42390_TS_DEWT_092017.nc | 18-Jan-2026 19:53 | 449365 | ||
| 42390_TS_DEWT_102012.nc | 02-Jan-2025 04:57 | 430415 | ||
| 42390_TS_DEWT_102013.nc | 02-Jan-2025 04:59 | 430003 | ||
| 42390_TS_DEWT_102014.nc | 18-Jan-2026 19:46 | 1476068 | ||
| 42390_TS_DEWT_102015.nc | 18-Jan-2026 19:48 | 1477219 | ||
| 42390_TS_DEWT_102016.nc | 18-Jan-2026 19:51 | 1625430 | ||
| 42390_TS_DEWT_102017.nc | 18-Jan-2026 19:53 | 1474348 | ||
| 42390_TS_DEWT_112012.nc | 02-Jan-2025 04:57 | 1475648 | ||
| 42390_TS_DEWT_112013.nc | 02-Jan-2025 04:59 | 1470353 | ||
| 42390_TS_DEWT_112015.nc | 18-Jan-2026 19:49 | 1625712 | ||
| 42390_TS_DEWT_112016.nc | 18-Jan-2026 19:51 | 1625552 | ||
| 42390_TS_DEWT_112017.nc | 18-Jan-2026 19:53 | 1475936 | ||
| 42390_TS_DEWT_122012.nc | 02-Jan-2025 04:57 | 1624649 | ||
| 42390_TS_DEWT_122013.nc | 02-Jan-2025 04:59 | 1150036 | ||
| 42390_TS_DEWT_122014.nc | 18-Jan-2026 19:46 | 1626491 | ||
| 42390_TS_DEWT_122015.nc | 18-Jan-2026 19:49 | 1474700 | ||
| 42390_TS_DEWT_122016.nc | 18-Jan-2026 19:51 | 1624830 | ||